Location: Alphen
(52.1351°N, 4.6549°E)
Time: 01:31:01
(UTC+00:00)

NOSS 3-3 (C) - Pass Details

Date: 27 January 2021
Orbit: 814 x 1398 km, 63.4° (Epoch: 25 February)

Event Time Altitude Azimuth Distance (km) Brightness Sun altitude
Exits shadow 04:37:28 40° 314° (NW) 1,690 4.9 -26.1°
Maximum altitude 04:40:35 89° 225° (SW) 1,250 4.4 -25.7°
Drops below altitude 10° 04:48:54 10° 138° (SE) 3,387 7.3 -24.4°
Sets 04:51:52 0° 138° (SE) 4,401 8.0 -23.9°
